Wetterdaten: Samstag, 11.07.2015
Datum Zeit Auen-Temp. Temp gefhlt Luftfeuchte Luftdruck Regen Wind Richtung Richtung Taupunkt Windben
11.07.2015 00:00 11,2 C 10,8 C 78 % 1014,7 hPa 0,0 mm 0,0 km/h (0 Bft) S-SO 157 7,5 C 0,0 km/h (0 Bft)
11.07.2015 00:05 11,1 C 10,7 C 78 % 1014,7 hPa 0,0 mm 0,0 km/h (0 Bft) S-SO 157 7,4 C 0,0 km/h (0 Bft)
11.07.2015 00:10 10,9 C 10,5 C 78 % 1014,7 hPa 0,0 mm 0,0 km/h (0 Bft) S-SO 157 7,2 C 0,0 km/h (0 Bft)
11.07.2015 00:15 10,9 C 10,5 C 78 % 1014,7 hPa 0,0 mm 0,0 km/h (0 Bft) S-SO 157 7,2 C 0,0 km/h (0 Bft)
11.07.2015 00:20 10,7 C 10,4 C 78 % 1014,7 hPa 0,0 mm 0,0 km/h (0 Bft) O-SO 112 7,0 C 0,0 km/h (0 Bft)
11.07.2015 00:25 11,0 C 10,6 C 80 % 1014,7 hPa 0,0 mm 0,0 km/h (0 Bft) O 90 7,7 C 0,0 km/h (0 Bft)
11.07.2015 00:30 11,0 C 10,6 C 80 % 1014,7 hPa 0,0 mm 0,0 km/h (0 Bft) N 360 7,7 C 0,0 km/h (0 Bft)
11.07.2015 00:35 10,7 C 10,3 C 79 % 1014,7 hPa 0,0 mm 0,0 km/h (0 Bft) NW 315 7,2 C 0,0 km/h (0 Bft)
11.07.2015 00:40 10,6 C 10,2 C 79 % 1014,7 hPa 0,0 mm 0,0 km/h (0 Bft) NW 315 7,1 C 0,0 km/h (0 Bft)
11.07.2015 00:45 10,5 C 10,1 C 79 % 1014,7 hPa 0,0 mm 0,0 km/h (0 Bft) NW 315 7,0 C 0,0 km/h (0 Bft)
11.07.2015 00:50 10,4 C 10,1 C 80 % 1014,2 hPa 0,0 mm 0,0 km/h (0 Bft) NO 45 7,1 C 0,0 km/h (0 Bft)
11.07.2015 00:55 10,3 C 10,0 C 80 % 1014,2 hPa 0,0 mm 0,0 km/h (0 Bft) N-NO 22 7,0 C 0,0 km/h (0 Bft)
11.07.2015 01:00 10,4 C 10,0 C 81 % 1014,2 hPa 0,0 mm 0,0 km/h (0 Bft) O-NO 67 7,3 C 0,0 km/h (0 Bft)
11.07.2015 01:05 10,5 C 10,0 C 82 % 1014,2 hPa 0,0 mm 0,0 km/h (0 Bft) NO 45 7,6 C 0,0 km/h (0 Bft)
11.07.2015 01:10 10,2 C 9,8 C 82 % 1014,1 hPa 0,0 mm 0,0 km/h (0 Bft) S-SW 202 7,3 C 0,0 km/h (0 Bft)
11.07.2015 01:15 10,2 C 9,8 C 82 % 1014,1 hPa 0,0 mm 0,0 km/h (0 Bft) S-SW 202 7,3 C 0,0 km/h (0 Bft)
11.07.2015 01:20 10,1 C 9,7 C 82 % 1014,1 hPa 0,0 mm 0,0 km/h (0 Bft) S 180 7,2 C 0,0 km/h (0 Bft)
11.07.2015 01:25 10,3 C 9,8 C 83 % 1014,1 hPa 0,0 mm 0,0 km/h (0 Bft) S-SW 202 7,5 C 0,0 km/h (0 Bft)
11.07.2015 01:30 10,1 C 9,7 C 83 % 1013,9 hPa 0,0 mm 0,0 km/h (0 Bft) S-SW 202 7,3 C 0,0 km/h (0 Bft)
11.07.2015 01:35 9,9 C 9,6 C 83 % 1013,9 hPa 0,0 mm 0,0 km/h (0 Bft) S-SW 202 7,2 C 0,0 km/h (0 Bft)
11.07.2015 01:40 9,8 C 9,4 C 83 % 1013,9 hPa 0,0 mm 0,0 km/h (0 Bft) S-SW 202 7,1 C 0,0 km/h (0 Bft)
11.07.2015 01:41 9,7 C 9,4 C 83 % 1013,9 hPa 0,0 mm 0,0 km/h (0 Bft) S-SW 202 7,0 C 0,0 km/h (0 Bft)
11.07.2015 01:46 9,7 C 9,3 C 83 % 1013,7 hPa 0,0 mm 0,0 km/h (0 Bft) S-SW 202 7,0 C 0,0 km/h (0 Bft)
11.07.2015 01:50 9,7 C 9,3 C 83 % 1013,7 hPa 0,0 mm 0,0 km/h (0 Bft) S-SW 202 7,0 C 0,0 km/h (0 Bft)
11.07.2015 01:55 9,7 C 9,3 C 83 % 1013,7 hPa 0,0 mm 0,0 km/h (0 Bft) S-SW 202 7,0 C 0,0 km/h (0 Bft)
11.07.2015 02:00 9,6 C 9,3 C 83 % 1013,7 hPa 0,0 mm 0,0 km/h (0 Bft) S 180 6,9 C 0,0 km/h (0 Bft)
11.07.2015 02:05 9,6 C 9,3 C 83 % 1013,7 hPa 0,0 mm 0,0 km/h (0 Bft) S 180 6,9 C 0,0 km/h (0 Bft)
11.07.2015 02:10 9,4 C 9,1 C 83 % 1013,5 hPa 0,0 mm 0,0 km/h (0 Bft) N-NW 337 6,7 C 0,0 km/h (0 Bft)
11.07.2015 02:15 9,5 C 9,2 C 84 % 1013,5 hPa 0,0 mm 0,0 km/h (0 Bft) N-NW 337 6,9 C 0,0 km/h (0 Bft)
11.07.2015 02:20 9,3 C 9,1 C 84 % 1013,5 hPa 0,0 mm 0,0 km/h (0 Bft) N-NW 337 6,7 C 0,0 km/h (0 Bft)
11.07.2015 02:25 9,3 C 9,1 C 84 % 1013,5 hPa 0,0 mm 0,0 km/h (0 Bft) N-NW 337 6,7 C 0,0 km/h (0 Bft)
11.07.2015 02:30 9,4 C 9,1 C 85 % 1013,4 hPa 0,0 mm 0,0 km/h (0 Bft) N-NW 337 7,0 C 0,0 km/h (0 Bft)
11.07.2015 02:35 9,3 C 9,0 C 85 % 1013,4 hPa 0,0 mm 0,0 km/h (0 Bft) NW 315 6,9 C 0,0 km/h (0 Bft)
11.07.2015 02:40 9,1 C 8,9 C 84 % 1013,4 hPa 0,0 mm 0,0 km/h (0 Bft) NW 315 6,5 C 0,0 km/h (0 Bft)
11.07.2015 02:45 9,1 C 8,9 C 84 % 1013,4 hPa 0,0 mm 0,0 km/h (0 Bft) NW 315 6,5 C 0,0 km/h (0 Bft)
11.07.2015 02:50 9,3 C 9,0 C 85 % 1013,6 hPa 0,0 mm 0,0 km/h (0 Bft) SO 135 6,9 C 0,0 km/h (0 Bft)
11.07.2015 02:55 9,2 C 8,9 C 85 % 1013,6 hPa 0,0 mm 0,0 km/h (0 Bft) SO 135 6,8 C 0,0 km/h (0 Bft)
11.07.2015 03:00 9,4 C 9,1 C 86 % 1013,6 hPa 0,0 mm 0,0 km/h (0 Bft) SO 135 7,2 C 0,0 km/h (0 Bft)
11.07.2015 03:05 9,4 C 9,2 C 86 % 1013,6 hPa 0,0 mm 0,0 km/h (0 Bft) SO 135 7,2 C 0,0 km/h (0 Bft)
11.07.2015 03:10 9,7 C 9,6 C 83 % 1013,2 hPa 0,0 mm 0,0 km/h (0 Bft) S 180 7,0 C 2,6 km/h (1 Bft)
11.07.2015 03:15 10,2 C 9,9 C 87 % 1013,2 hPa 0,0 mm 0,5 km/h (0 Bft) O-SO 112 8,1 C 0,0 km/h (0 Bft)
11.07.2015 03:20 9,6 C 9,5 C 87 % 1013,2 hPa 0,0 mm 0,5 km/h (0 Bft) S-SW 202 7,5 C 8,5 km/h (2 Bft)
11.07.2015 03:25 10,0 C 9,8 C 83 % 1013,2 hPa 0,0 mm 0,0 km/h (0 Bft) S 180 7,2 C 0,0 km/h (0 Bft)
11.07.2015 03:30 10,0 C 9,8 C 87 % 1013,1 hPa 0,0 mm 0,5 km/h (0 Bft) N-NO 22 7,9 C 0,0 km/h (0 Bft)
11.07.2015 03:35 9,8 C 9,6 C 87 % 1013,1 hPa 0,0 mm 0,5 km/h (0 Bft) NO 45 7,7 C 0,0 km/h (0 Bft)
11.07.2015 03:40 9,6 C 9,4 C 86 % 1013,1 hPa 0,0 mm 0,0 km/h (0 Bft) NO 45 7,4 C 0,0 km/h (0 Bft)
11.07.2015 03:45 9,5 C 9,3 C 86 % 1013,1 hPa 0,0 mm 0,0 km/h (0 Bft) W-NW 292 7,3 C 0,0 km/h (0 Bft)
11.07.2015 03:50 9,6 C 9,3 C 86 % 1012,6 hPa 0,0 mm 0,0 km/h (0 Bft) S 180 7,4 C 0,0 km/h (0 Bft)
11.07.2015 03:55 9,4 C 9,2 C 86 % 1012,6 hPa 0,0 mm 0,0 km/h (0 Bft) O-NO 67 7,2 C 0,0 km/h (0 Bft)
11.07.2015 04:00 9,5 C 9,2 C 86 % 1012,6 hPa 0,0 mm 0,0 km/h (0 Bft) O-SO 112 7,3 C 0,0 km/h (0 Bft)
11.07.2015 04:05 9,3 C 9,1 C 86 % 1012,6 hPa 0,0 mm 0,0 km/h (0 Bft) SO 135 7,1 C 0,0 km/h (0 Bft)
11.07.2015 04:10 9,1 C 8,9 C 86 % 1012,4 hPa 0,0 mm 0,0 km/h (0 Bft) N-NO 22 6,9 C 0,0 km/h (0 Bft)
11.07.2015 04:15 9,1 C 8,8 C 86 % 1012,4 hPa 0,0 mm 0,0 km/h (0 Bft) O 90 6,9 C 0,0 km/h (0 Bft)
11.07.2015 04:20 9,1 C 8,8 C 86 % 1012,4 hPa 0,0 mm 0,0 km/h (0 Bft) O-SO 112 6,9 C 0,0 km/h (0 Bft)
11.07.2015 04:25 8,9 C 8,7 C 86 % 1012,4 hPa 0,0 mm 0,0 km/h (0 Bft) O-SO 112 6,7 C 0,0 km/h (0 Bft)
11.07.2015 04:30 8,9 C 8,6 C 86 % 1012,4 hPa 0,0 mm 0,0 km/h (0 Bft) NW 315 6,7 C 0,0 km/h (0 Bft)
11.07.2015 04:35 9,0 C 8,7 C 86 % 1012,4 hPa 0,0 mm 0,0 km/h (0 Bft) O-NO 67 6,8 C 0,0 km/h (0 Bft)
11.07.2015 04:40 8,9 C 8,6 C 87 % 1012,4 hPa 0,0 mm 0,0 km/h (0 Bft) O-NO 67 6,9 C 0,0 km/h (0 Bft)
11.07.2015 04:45 8,8 C 8,6 C 87 % 1012,4 hPa 0,0 mm 0,0 km/h (0 Bft) O-NO 67 6,8 C 0,0 km/h (0 Bft)
11.07.2015 04:50 8,9 C 8,6 C 87 % 1012,4 hPa 0,0 mm 0,0 km/h (0 Bft) N-NW 337 6,9 C 0,0 km/h (0 Bft)
11.07.2015 04:55 8,7 C 8,5 C 87 % 1012,4 hPa 0,0 mm 0,0 km/h (0 Bft) N-NO 22 6,7 C 0,0 km/h (0 Bft)
11.07.2015 05:00 8,9 C 8,7 C 87 % 1012,4 hPa 0,0 mm 0,0 km/h (0 Bft) O-SO 112 6,9 C 0,0 km/h (0 Bft)
11.07.2015 05:05 8,9 C 8,7 C 87 % 1012,4 hPa 0,0 mm 0,0 km/h (0 Bft) SO 135 6,9 C 0,0 km/h (0 Bft)
11.07.2015 05:10 8,8 C 8,7 C 87 % 1012,4 hPa 0,0 mm 0,0 km/h (0 Bft) W-NW 292 6,8 C 0,0 km/h (0 Bft)
11.07.2015 05:15 8,8 C 8,7 C 87 % 1012,4 hPa 0,0 mm 0,0 km/h (0 Bft) W-SW 247 6,8 C 0,0 km/h (0 Bft)
11.07.2015 05:20 8,8 C 8,6 C 87 % 1012,4 hPa 0,0 mm 0,0 km/h (0 Bft) W 270 6,8 C 0,0 km/h (0 Bft)
11.07.2015 05:25 8,7 C 8,5 C 87 % 1012,4 hPa 0,0 mm 0,0 km/h (0 Bft) W-NW 292 6,7 C 0,0 km/h (0 Bft)
11.07.2015 05:30 8,9 C 8,6 C 88 % 1012,1 hPa 0,0 mm 0,0 km/h (0 Bft) N 360 7,0 C 0,0 km/h (0 Bft)
11.07.2015 05:35 8,8 C 8,6 C 88 % 1012,1 hPa 0,0 mm 0,0 km/h (0 Bft) O-NO 67 6,9 C 0,0 km/h (0 Bft)
11.07.2015 05:40 8,7 C 8,5 C 88 % 1012,1 hPa 0,0 mm 0,0 km/h (0 Bft) S-SO 157 6,8 C 0,0 km/h (0 Bft)
11.07.2015 05:45 9,0 C 8,7 C 88 % 1012,1 hPa 0,0 mm 0,0 km/h (0 Bft) O-SO 112 7,1 C 0,0 km/h (0 Bft)
11.07.2015 05:50 8,9 C 8,7 C 88 % 1012,2 hPa 0,0 mm 0,0 km/h (0 Bft) O-SO 112 7,0 C 0,0 km/h (0 Bft)
11.07.2015 05:55 8,8 C 8,7 C 88 % 1012,2 hPa 0,0 mm 0,0 km/h (0 Bft) O-SO 112 6,9 C 0,0 km/h (0 Bft)
11.07.2015 06:00 8,7 C 8,6 C 88 % 1012,2 hPa 0,0 mm 0,0 km/h (0 Bft) O-SO 112 6,8 C 0,0 km/h (0 Bft)
11.07.2015 06:05 9,0 C 8,9 C 88 % 1012,2 hPa 0,0 mm 1,0 km/h (0 Bft) S 180 7,1 C 10,1 km/h (2 Bft)
11.07.2015 06:10 9,8 C 10,0 C 85 % 1012,3 hPa 0,0 mm 2,8 km/h (1 Bft) W-SW 247 7,4 C 0,0 km/h (0 Bft)
11.07.2015 06:15 10,1 C 11,0 C 85 % 1012,3 hPa 0,0 mm 3,4 km/h (1 Bft) S 180 7,7 C 0,0 km/h (0 Bft)
11.07.2015 06:20 10,5 C 12,0 C 85 % 1012,3 hPa 0,0 mm 0,8 km/h (0 Bft) S-SO 157 8,1 C 0,0 km/h (0 Bft)
11.07.2015 06:25 10,7 C 13,0 C 85 % 1012,3 hPa 0,0 mm 0,3 km/h (0 Bft) S 180 8,3 C 0,0 km/h (0 Bft)
11.07.2015 06:30 11,0 C 14,3 C 84 % 1012,1 hPa 0,0 mm 0,0 km/h (0 Bft) O-SO 112 8,4 C 0,0 km/h (0 Bft)
11.07.2015 06:35 11,4 C 15,3 C 87 % 1012,1 hPa 0,0 mm 0,0 km/h (0 Bft) O 90 9,3 C 0,0 km/h (0 Bft)
11.07.2015 06:40 11,8 C 16,5 C 86 % 1012,1 hPa 0,0 mm 0,0 km/h (0 Bft) N-NO 22 9,5 C 0,0 km/h (0 Bft)
11.07.2015 06:45 11,9 C 17,3 C 86 % 1012,1 hPa 0,0 mm 0,0 km/h (0 Bft) O-NO 67 9,6 C 0,0 km/h (0 Bft)
11.07.2015 06:50 12,5 C 18,2 C 84 % 1012,4 hPa 0,0 mm 0,0 km/h (0 Bft) NO 45 9,9 C 0,0 km/h (0 Bft)
11.07.2015 06:55 12,7 C 18,8 C 83 % 1012,4 hPa 0,0 mm 0,0 km/h (0 Bft) O-NO 67 9,9 C 0,0 km/h (0 Bft)
11.07.2015 07:00 13,2 C 19,5 C 81 % 1012,4 hPa 0,0 mm 0,0 km/h (0 Bft) NO 45 10,0 C 0,0 km/h (0 Bft)
11.07.2015 07:05 13,3 C 20,1 C 79 % 1012,4 hPa 0,0 mm 0,0 km/h (0 Bft) O-NO 67 9,7 C 0,0 km/h (0 Bft)
11.07.2015 07:10 14,1 C 21,3 C 78 % 1012,6 hPa 0,0 mm 0,0 km/h (0 Bft) NO 45 10,3 C 0,0 km/h (0 Bft)
11.07.2015 07:15 14,0 C 21,9 C 76 % 1012,6 hPa 0,0 mm 0,0 km/h (0 Bft) NO 45 9,8 C 0,0 km/h (0 Bft)
11.07.2015 07:20 14,2 C 22,5 C 75 % 1012,6 hPa 0,0 mm 0,0 km/h (0 Bft) O-NO 67 9,8 C 0,0 km/h (0 Bft)
11.07.2015 07:25 14,5 C 22,8 C 74 % 1012,6 hPa 0,0 mm 0,0 km/h (0 Bft) O-NO 67 9,9 C 0,0 km/h (0 Bft)
11.07.2015 07:30 15,5 C 23,8 C 72 % 1012,7 hPa 0,0 mm 0,0 km/h (0 Bft) N-NO 22 10,5 C 0,0 km/h (0 Bft)
11.07.2015 07:35 16,1 C 24,6 C 71 % 1012,7 hPa 0,0 mm 0,0 km/h (0 Bft) NO 45 10,8 C 0,0 km/h (0 Bft)
11.07.2015 07:40 16,9 C 25,9 C 71 % 1012,7 hPa 0,0 mm 0,0 km/h (0 Bft) NO 45 11,6 C 0,0 km/h (0 Bft)
11.07.2015 07:45 17,6 C 26,2 C 69 % 1012,7 hPa 0,0 mm 0,0 km/h (0 Bft) N-NW 337 11,8 C 0,0 km/h (0 Bft)
11.07.2015 07:46 17,9 C 26,1 C 69 % 1012,9 hPa 0,0 mm 0,0 km/h (0 Bft) O-NO 67 12,1 C 0,0 km/h (0 Bft)
11.07.2015 07:48 17,9 C 26,1 C 69 % 1012,9 hPa 0,0 mm 0,0 km/h (0 Bft) O-NO 67 12,1 C 0,0 km/h (0 Bft)
11.07.2015 07:50 17,9 C 26,1 C 69 % 1012,9 hPa 0,0 mm 0,0 km/h (0 Bft) O-NO 67 12,1 C 0,0 km/h (0 Bft)
11.07.2015 07:55 17,5 C 26,5 C 69 % 1012,9 hPa 0,0 mm 0,0 km/h (0 Bft) N-NO 22 11,7 C 0,0 km/h (0 Bft)
11.07.2015 08:00 17,7 C 27,0 C 69 % 1012,9 hPa 0,0 mm 0,0 km/h (0 Bft) O-NO 67 11,9 C 0,0 km/h (0 Bft)
11.07.2015 08:05 17,9 C 27,4 C 69 % 1012,9 hPa 0,0 mm 0,0 km/h (0 Bft) NO 45 12,1 C 0,0 km/h (0 Bft)
11.07.2015 08:10 18,0 C 28,0 C 67 % 1012,6 hPa 0,0 mm 0,0 km/h (0 Bft) N-NO 22 11,8 C 0,0 km/h (0 Bft)
11.07.2015 08:15 18,5 C 28,3 C 67 % 1012,6 hPa 0,0 mm 0,0 km/h (0 Bft) O-NO 67 12,3 C 0,0 km/h (0 Bft)
11.07.2015 08:20 18,6 C 28,4 C 67 % 1012,6 hPa 0,0 mm 0,0 km/h (0 Bft) O-NO 67 12,3 C 0,0 km/h (0 Bft)
11.07.2015 08:25 19,0 C 28,8 C 67 % 1012,6 hPa 0,0 mm 0,0 km/h (0 Bft) O-NO 67 12,7 C 0,0 km/h (0 Bft)
11.07.2015 08:30 19,5 C 29,7 C 65 % 1012,9 hPa 0,0 mm 0,0 km/h (0 Bft) O-NO 67 12,7 C 0,0 km/h (0 Bft)
11.07.2015 08:35 19,5 C 29,7 C 65 % 1012,9 hPa 0,0 mm 0,0 km/h (0 Bft) O-NO 67 12,7 C 0,0 km/h (0 Bft)
11.07.2015 08:40 20,1 C 29,9 C 65 % 1012,9 hPa 0,0 mm 0,0 km/h (0 Bft) O-NO 67 13,3 C 0,0 km/h (0 Bft)
11.07.2015 08:45 20,4 C 30,2 C 64 % 1012,9 hPa 0,0 mm 0,0 km/h (0 Bft) O-NO 67 13,4 C 0,0 km/h (0 Bft)
11.07.2015 08:50 20,7 C 30,8 C 63 % 1013,2 hPa 0,0 mm 0,0 km/h (0 Bft) N-NW 337 13,4 C 0,0 km/h (0 Bft)
11.07.2015 08:55 21,3 C 31,1 C 63 % 1013,2 hPa 0,0 mm 0,0 km/h (0 Bft) N-NW 337 14,0 C 0,0 km/h (0 Bft)
11.07.2015 09:00 21,3 C 30,8 C 62 % 1013,2 hPa 0,0 mm 0,0 km/h (0 Bft) O-NO 67 13,7 C 0,0 km/h (0 Bft)
11.07.2015 09:05 21,4 C 30,7 C 62 % 1013,2 hPa 0,0 mm 0,3 km/h (0 Bft) O-NO 67 13,8 C 2,6 km/h (1 Bft)
11.07.2015 09:10 21,5 C 30,2 C 62 % 1013,2 hPa 0,0 mm 0,3 km/h (0 Bft) O-NO 67 13,9 C 0,0 km/h (0 Bft)
11.07.2015 09:15 21,8 C 30,7 C 61 % 1013,2 hPa 0,0 mm 0,3 km/h (0 Bft) N-NO 22 13,9 C 0,0 km/h (0 Bft)
11.07.2015 09:20 22,2 C 31,2 C 59 % 1013,2 hPa 0,0 mm 0,0 km/h (0 Bft) O-NO 67 13,8 C 0,0 km/h (0 Bft)
11.07.2015 09:25 22,2 C 31,1 C 59 % 1013,2 hPa 0,0 mm 0,0 km/h (0 Bft) NO 45 13,8 C 0,0 km/h (0 Bft)
11.07.2015 09:30 22,9 C 31,8 C 59 % 1013,6 hPa 0,0 mm 0,0 km/h (0 Bft) O-NO 67 14,5 C 0,0 km/h (0 Bft)
11.07.2015 09:35 23,1 C 31,7 C 58 % 1013,6 hPa 0,0 mm 0,3 km/h (0 Bft) O-NO 67 14,4 C 0,0 km/h (0 Bft)
11.07.2015 09:40 23,4 C 31,4 C 58 % 1013,6 hPa 0,0 mm 0,3 km/h (0 Bft) N-NO 22 14,7 C 2,6 km/h (1 Bft)
11.07.2015 09:45 23,8 C 31,8 C 57 % 1013,6 hPa 0,0 mm 0,5 km/h (0 Bft) NO 45 14,8 C 0,0 km/h (0 Bft)
11.07.2015 09:50 24,2 C 31,9 C 57 % 1014,0 hPa 0,0 mm 1,0 km/h (0 Bft) O-NO 67 15,1 C 2,6 km/h (1 Bft)
11.07.2015 09:55 24,3 C 31,9 C 57 % 1014,0 hPa 0,0 mm 1,0 km/h (0 Bft) N-NW 337 15,2 C 0,0 km/h (0 Bft)
11.07.2015 10:00 24,3 C 31,2 C 57 % 1014,0 hPa 0,0 mm 1,3 km/h (1 Bft) W-NW 292 15,2 C 0,0 km/h (0 Bft)
11.07.2015 10:05 24,7 C 31,2 C 57 % 1014,0 hPa 0,0 mm 1,3 km/h (1 Bft) N-NW 337 15,6 C 5,2 km/h (1 Bft)
11.07.2015 10:10 25,2 C 31,9 C 57 % 1014,0 hPa 0,0 mm 1,0 km/h (0 Bft) N-NW 337 16,1 C 0,0 km/h (0 Bft)
11.07.2015 10:15 25,6 C 32,7 C 56 % 1014,0 hPa 0,0 mm 1,0 km/h (0 Bft) SO 135 16,2 C 0,0 km/h (0 Bft)
11.07.2015 10:20 25,4 C 33,7 C 56 % 1014,0 hPa 0,0 mm 0,3 km/h (0 Bft) N-NW 337 16,0 C 4,4 km/h (1 Bft)
11.07.2015 10:25 25,8 C 33,6 C 56 % 1014,0 hPa 0,0 mm 1,0 km/h (0 Bft) NW 315 16,3 C 0,0 km/h (0 Bft)
11.07.2015 10:30 26,2 C 33,4 C 53 % 1014,4 hPa 0,0 mm 3,1 km/h (1 Bft) NW 315 15,8 C 14,5 km/h (3 Bft)
11.07.2015 10:35 26,3 C 32,8 C 52 % 1014,4 hPa 0,0 mm 5,2 km/h (1 Bft) W-SW 247 15,6 C 10,6 km/h (2 Bft)
11.07.2015 10:40 26,1 C 32,0 C 51 % 1014,4 hPa 0,0 mm 7,8 km/h (2 Bft) W-NW 292 15,2 C 17,1 km/h (3 Bft)
11.07.2015 10:45 26,0 C 31,2 C 50 % 1014,4 hPa 0,0 mm 9,8 km/h (2 Bft) W 270 14,8 C 23,6 km/h (4 Bft)
11.07.2015 10:50 25,8 C 30,5 C 52 % 1014,4 hPa 0,0 mm 11,7 km/h (2 Bft) W-SW 247 15,2 C 30,0 km/h (5 Bft)
11.07.2015 10:55 25,5 C 29,7 C 52 % 1014,4 hPa 0,0 mm 11,4 km/h (2 Bft) W-NW 292 14,9 C 14,5 km/h (3 Bft)
11.07.2015 11:00 25,8 C 29,9 C 52 % 1014,4 hPa 0,0 mm 11,4 km/h (2 Bft) W 270 15,2 C 16,3 km/h (3 Bft)
11.07.2015 11:05 25,9 C 30,3 C 52 % 1014,4 hPa 0,0 mm 10,9 km/h (2 Bft) W 270 15,3 C 24,1 km/h (4 Bft)
11.07.2015 11:10 26,1 C 30,8 C 50 % 1014,1 hPa 0,0 mm 11,1 km/h (2 Bft) S-SW 202 14,8 C 20,5 km/h (4 Bft)
11.07.2015 11:15 25,8 C 30,5 C 49 % 1014,1 hPa 0,0 mm 13,5 km/h (3 Bft) W 270 14,3 C 22,8 km/h (4 Bft)
11.07.2015 11:20 25,9 C 30,4 C 51 % 1014,1 hPa 0,0 mm 11,9 km/h (2 Bft) W-NW 292 15,0 C 41,9 km/h (6 Bft)
11.07.2015 11:25 26,0 C 30,4 C 48 % 1014,1 hPa 0,0 mm 12,7 km/h (3 Bft) W-SW 247 14,1 C 19,9 km/h (4 Bft)
11.07.2015 11:30 26,0 C 30,3 C 48 % 1014,2 hPa 0,0 mm 11,9 km/h (2 Bft) W-NW 292 14,1 C 15,3 km/h (3 Bft)
11.07.2015 11:35 26,0 C 30,2 C 48 % 1014,2 hPa 0,0 mm 12,2 km/h (2 Bft) O-SO 112 14,1 C 15,3 km/h (3 Bft)
11.07.2015 11:40 25,6 C 28,9 C 48 % 1014,2 hPa 0,0 mm 14,5 km/h (3 Bft) W 270 13,8 C 12,4 km/h (3 Bft)
11.07.2015 11:45 25,5 C 28,9 C 48 % 1014,2 hPa 0,0 mm 15,8 km/h (3 Bft) W 270 13,7 C 13,5 km/h (3 Bft)
11.07.2015 11:50 25,7 C 29,2 C 49 % 1014,0 hPa 0,0 mm 14,2 km/h (3 Bft) W-NW 292 14,2 C 11,7 km/h (2 Bft)
11.07.2015 11:55 25,9 C 29,7 C 49 % 1014,0 hPa 0,0 mm 13,2 km/h (3 Bft) W-NW 292 14,4 C 12,7 km/h (3 Bft)
11.07.2015 12:00 25,9 C 29,5 C 49 % 1014,0 hPa 0,0 mm 14,5 km/h (3 Bft) W-SW 247 14,4 C 15,5 km/h (3 Bft)
11.07.2015 12:05 25,9 C 29,2 C 49 % 1014,0 hPa 0,0 mm 15,3 km/h (3 Bft) W-NW 292 14,4 C 24,3 km/h (4 Bft)
11.07.2015 12:10 26,0 C 29,6 C 48 % 1013,8 hPa 0,0 mm 12,4 km/h (3 Bft) SW 225 14,1 C 11,9 km/h (2 Bft)
11.07.2015 12:15 26,1 C 29,6 C 49 % 1013,8 hPa 0,0 mm 10,9 km/h (2 Bft) W 270 14,5 C 11,7 km/h (2 Bft)
11.07.2015 12:20 26,3 C 29,8 C 48 % 1013,8 hPa 0,0 mm 11,4 km/h (2 Bft) W-NW 292 14,4 C 28,0 km/h (4 Bft)
11.07.2015 12:25 26,2 C 29,7 C 48 % 1013,8 hPa 0,0 mm 12,4 km/h (3 Bft) NW 315 14,3 C 20,2 km/h (4 Bft)
11.07.2015 12:30 26,2 C 29,6 C 48 % 1013,9 hPa 0,0 mm 13,2 km/h (3 Bft) W 270 14,3 C 18,4 km/h (3 Bft)
11.07.2015 12:35 26,4 C 29,8 C 48 % 1013,9 hPa 0,0 mm 11,9 km/h (2 Bft) W 270 14,5 C 11,7 km/h (2 Bft)
11.07.2015 12:40 26,5 C 30,0 C 48 % 1013,9 hPa 0,0 mm 11,1 km/h (2 Bft) W-SW 247 14,6 C 17,9 km/h (3 Bft)
11.07.2015 12:45 26,5 C 30,1 C 47 % 1013,9 hPa 0,0 mm 10,4 km/h (2 Bft) SW 225 14,3 C 8,8 km/h (2 Bft)
11.07.2015 12:50 26,6 C 30,5 C 46 % 1013,6 hPa 0,0 mm 9,1 km/h (2 Bft) W 270 14,0 C 15,0 km/h (3 Bft)
11.07.2015 12:55 26,7 C 30,3 C 47 % 1013,6 hPa 0,0 mm 9,3 km/h (2 Bft) O-SO 112 14,4 C 6,2 km/h (2 Bft)
11.07.2015 13:00 27,0 C 30,8 C 47 % 1013,6 hPa 0,0 mm 8,5 km/h (2 Bft) SW 225 14,7 C 10,9 km/h (2 Bft)
11.07.2015 13:05 27,0 C 30,9 C 46 % 1013,6 hPa 0,0 mm 7,3 km/h (2 Bft) W-NW 292 14,4 C 12,9 km/h (3 Bft)
11.07.2015 13:10 26,9 C 30,5 C 46 % 1013,6 hPa 0,0 mm 9,8 km/h (2 Bft) SW 225 14,3 C 9,1 km/h (2 Bft)
11.07.2015 13:15 26,8 C 30,3 C 45 % 1013,6 hPa 0,0 mm 12,7 km/h (3 Bft) NW 315 13,9 C 17,6 km/h (3 Bft)
11.07.2015 13:20 26,9 C 29,5 C 46 % 1013,6 hPa 0,0 mm 13,5 km/h (3 Bft) W 270 14,3 C 29,3 km/h (5 Bft)
11.07.2015 13:25 26,9 C 29,0 C 46 % 1013,6 hPa 0,0 mm 11,7 km/h (2 Bft) SW 225 14,3 C 4,1 km/h (1 Bft)
11.07.2015 13:30 27,1 C 28,8 C 46 % 1013,5 hPa 0,0 mm 9,1 km/h (2 Bft) W-NW 292 14,5 C 12,2 km/h (2 Bft)
11.07.2015 13:35 27,1 C 28,9 C 45 % 1013,5 hPa 0,0 mm 8,3 km/h (2 Bft) NO 45 14,1 C 6,0 km/h (2 Bft)
11.07.2015 13:40 27,4 C 29,8 C 45 % 1013,5 hPa 0,0 mm 9,3 km/h (2 Bft) NW 315 14,4 C 18,1 km/h (3 Bft)
11.07.2015 13:45 27,3 C 30,0 C 45 % 1013,5 hPa 0,0 mm 9,3 km/h (2 Bft) W-SW 247 14,3 C 10,6 km/h (2 Bft)
11.07.2015 13:46 27,3 C 30,3 C 44 % 1013,4 hPa 0,0 mm 13,2 km/h (3 Bft) W-NW 292 14,0 C 24,9 km/h (4 Bft)
11.07.2015 13:49 27,3 C 30,3 C 44 % 1013,4 hPa 0,0 mm 13,2 km/h (3 Bft) W-NW 292 14,0 C 24,9 km/h (4 Bft)
11.07.2015 13:50 27,3 C 30,3 C 44 % 1013,4 hPa 0,0 mm 13,2 km/h (3 Bft) W-NW 292 14,0 C 24,9 km/h (4 Bft)
11.07.2015 13:55 27,2 C 29,9 C 43 % 1013,4 hPa 0,0 mm 15,8 km/h (3 Bft) W 270 13,5 C 21,0 km/h (4 Bft)
11.07.2015 14:00 27,4 C 30,3 C 45 % 1013,4 hPa 0,0 mm 13,2 km/h (3 Bft) W-NW 292 14,4 C 11,4 km/h (2 Bft)
11.07.2015 14:05 27,5 C 30,5 C 43 % 1013,4 hPa 0,0 mm 11,1 km/h (2 Bft) NW 315 13,8 C 25,4 km/h (4 Bft)
11.07.2015 14:10 27,7 C 30,6 C 43 % 1013,1 hPa 0,0 mm 11,4 km/h (2 Bft) NW 315 14,0 C 19,4 km/h (3 Bft)
11.07.2015 14:15 27,7 C 30,9 C 42 % 1013,1 hPa 0,0 mm 9,8 km/h (2 Bft) W-NW 292 13,6 C 16,8 km/h (3 Bft)
11.07.2015 14:20 28,0 C 31,4 C 41 % 1013,1 hPa 0,0 mm 9,6 km/h (2 Bft) NW 315 13,5 C 27,4 km/h (4 Bft)
11.07.2015 14:25 27,8 C 31,1 C 38 % 1013,1 hPa 0,0 mm 13,5 km/h (3 Bft) W-SW 247 12,2 C 21,5 km/h (4 Bft)
11.07.2015 14:30 27,8 C 30,8 C 38 % 1013,1 hPa 0,0 mm 16,6 km/h (3 Bft) W 270 12,2 C 29,0 km/h (5 Bft)
11.07.2015 14:35 27,8 C 30,5 C 39 % 1013,1 hPa 0,0 mm 16,6 km/h (3 Bft) W-NW 292 12,6 C 17,1 km/h (3 Bft)
11.07.2015 14:40 27,8 C 30,6 C 39 % 1013,1 hPa 0,0 mm 14,2 km/h (3 Bft) SW 225 12,6 C 12,9 km/h (3 Bft)
11.07.2015 14:45 27,8 C 30,8 C 37 % 1013,1 hPa 0,0 mm 12,9 km/h (3 Bft) S-SO 157 11,8 C 25,6 km/h (4 Bft)
11.07.2015 14:50 27,7 C 30,8 C 38 % 1013,1 hPa 0,0 mm 12,9 km/h (3 Bft) O-SO 112 12,1 C 14,0 km/h (3 Bft)
11.07.2015 14:55 27,8 C 30,8 C 38 % 1013,1 hPa 0,0 mm 13,5 km/h (3 Bft) W 270 12,2 C 25,1 km/h (4 Bft)
11.07.2015 15:00 27,7 C 30,4 C 37 % 1013,1 hPa 0,0 mm 16,3 km/h (3 Bft) S-SW 202 11,7 C 9,8 km/h (2 Bft)
11.07.2015 15:05 27,8 C 30,5 C 38 % 1013,1 hPa 0,0 mm 15,5 km/h (3 Bft) W-SW 247 12,2 C 15,0 km/h (3 Bft)
11.07.2015 15:10 27,9 C 30,9 C 38 % 1013,1 hPa 0,0 mm 11,9 km/h (2 Bft) NW 315 12,2 C 51,5 km/h (7 Bft)
11.07.2015 15:15 27,8 C 30,8 C 37 % 1013,1 hPa 0,0 mm 14,8 km/h (3 Bft) W-NW 292 11,8 C 5,7 km/h (1 Bft)
11.07.2015 15:20 27,8 C 30,8 C 37 % 1013,1 hPa 0,0 mm 16,3 km/h (3 Bft) S-SO 157 11,8 C 13,5 km/h (3 Bft)
11.07.2015 15:25 27,8 C 30,8 C 37 % 1013,1 hPa 0,0 mm 15,0 km/h (3 Bft) W-NW 292 11,8 C 25,1 km/h (4 Bft)
11.07.2015 15:30 27,8 C 30,6 C 37 % 1013,0 hPa 0,0 mm 16,6 km/h (3 Bft) W-NW 292 11,8 C 30,8 km/h (5 Bft)
11.07.2015 15:35 27,6 C 30,5 C 36 % 1013,0 hPa 0,0 mm 16,3 km/h (3 Bft) N-NW 337 11,2 C 19,7 km/h (3 Bft)
11.07.2015 15:40 27,6 C 30,5 C 37 % 1013,0 hPa 0,0 mm 15,8 km/h (3 Bft) W 270 11,6 C 11,9 km/h (2 Bft)
11.07.2015 15:45 27,7 C 30,6 C 37 % 1013,0 hPa 0,0 mm 13,5 km/h (3 Bft) W-NW 292 11,7 C 20,2 km/h (4 Bft)
11.07.2015 15:50 27,6 C 30,7 C 36 % 1012,9 hPa 0,0 mm 14,8 km/h (3 Bft) W-NW 292 11,2 C 37,0 km/h (5 Bft)
11.07.2015 15:55 27,5 C 30,5 C 36 % 1012,9 hPa 0,0 mm 16,3 km/h (3 Bft) W 270 11,1 C 12,9 km/h (3 Bft)
11.07.2015 16:00 27,4 C 30,6 C 37 % 1012,9 hPa 0,0 mm 15,3 km/h (3 Bft) SW 225 11,4 C 13,5 km/h (3 Bft)
11.07.2015 16:05 27,5 C 30,8 C 37 % 1012,9 hPa 0,0 mm 14,8 km/h (3 Bft) W-NW 292 11,5 C 36,8 km/h (5 Bft)
11.07.2015 16:10 26,9 C 30,2 C 37 % 1013,0 hPa 0,0 mm 18,9 km/h (3 Bft) W-SW 247 11,0 C 30,6 km/h (5 Bft)
11.07.2015 16:15 26,7 C 30,2 C 38 % 1013,0 hPa 0,0 mm 18,1 km/h (3 Bft) W 270 11,2 C 16,8 km/h (3 Bft)
11.07.2015 16:20 26,6 C 30,3 C 39 % 1013,0 hPa 0,0 mm 12,9 km/h (3 Bft) W 270 11,5 C 15,3 km/h (3 Bft)
11.07.2015 16:25 26,6 C 30,7 C 40 % 1013,0 hPa 0,0 mm 11,7 km/h (2 Bft) W-NW 292 11,9 C 14,2 km/h (3 Bft)
11.07.2015 16:30 26,4 C 30,5 C 40 % 1013,1 hPa 0,0 mm 13,5 km/h (3 Bft) W 270 11,7 C 34,4 km/h (5 Bft)
11.07.2015 16:35 26,3 C 30,2 C 39 % 1013,1 hPa 0,0 mm 16,1 km/h (3 Bft) W-SW 247 11,2 C 12,7 km/h (3 Bft)
11.07.2015 16:40 26,3 C 30,1 C 40 % 1013,1 hPa 0,0 mm 17,1 km/h (3 Bft) N-NO 22 11,6 C 15,8 km/h (3 Bft)
11.07.2015 16:45 26,3 C 30,3 C 40 % 1013,1 hPa 0,0 mm 13,7 km/h (3 Bft) W-SW 247 11,6 C 17,9 km/h (3 Bft)
11.07.2015 16:50 26,3 C 30,3 C 39 % 1013,0 hPa 0,0 mm 12,7 km/h (3 Bft) W-NW 292 11,2 C 11,1 km/h (2 Bft)
11.07.2015 16:55 26,2 C 30,4 C 39 % 1013,0 hPa 0,0 mm 13,5 km/h (3 Bft) N-NW 337 11,1 C 27,2 km/h (4 Bft)
11.07.2015 17:00 26,2 C 30,0 C 38 % 1013,0 hPa 0,0 mm 15,5 km/h (3 Bft) W-NW 292 10,7 C 31,1 km/h (5 Bft)
11.07.2015 17:05 26,1 C 29,5 C 38 % 1013,0 hPa 0,0 mm 17,6 km/h (3 Bft) W 270 10,7 C 17,1 km/h (3 Bft)
11.07.2015 17:10 26,0 C 28,6 C 39 % 1012,9 hPa 0,0 mm 14,5 km/h (3 Bft) N-NO 22 11,0 C 21,2 km/h (4 Bft)
11.07.2015 17:15 26,0 C 27,9 C 39 % 1012,9 hPa 0,0 mm 12,9 km/h (3 Bft) SW 225 11,0 C 12,7 km/h (3 Bft)
11.07.2015 17:20 26,3 C 27,6 C 40 % 1012,9 hPa 0,0 mm 11,9 km/h (2 Bft) W-NW 292 11,6 C 7,8 km/h (2 Bft)
11.07.2015 17:25 26,2 C 27,5 C 40 % 1012,9 hPa 0,0 mm 10,1 km/h (2 Bft) W 270 11,5 C 16,8 km/h (3 Bft)
11.07.2015 17:30 26,1 C 27,3 C 40 % 1012,9 hPa 0,0 mm 8,5 km/h (2 Bft) W-SW 247 11,4 C 9,8 km/h (2 Bft)
11.07.2015 17:35 26,1 C 27,4 C 40 % 1012,9 hPa 0,0 mm 9,6 km/h (2 Bft) S-SO 157 11,4 C 18,1 km/h (3 Bft)
11.07.2015 17:40 25,9 C 27,1 C 39 % 1012,9 hPa 0,0 mm 11,9 km/h (2 Bft) W-SW 247 10,9 C 19,9 km/h (4 Bft)
11.07.2015 17:45 25,9 C 27,0 C 41 % 1012,9 hPa 0,0 mm 10,9 km/h (2 Bft) S-SW 202 11,6 C 12,2 km/h (2 Bft)
11.07.2015 17:50 26,0 C 27,1 C 40 % 1012,6 hPa 0,0 mm 9,1 km/h (2 Bft) NW 315 11,3 C 9,8 km/h (2 Bft)
11.07.2015 17:55 26,0 C 27,1 C 41 % 1012,6 hPa 0,0 mm 9,1 km/h (2 Bft) W-NW 292 11,7 C 11,9 km/h (2 Bft)
11.07.2015 18:00 26,0 C 27,0 C 40 % 1012,6 hPa 0,0 mm 10,4 km/h (2 Bft) SO 135 11,3 C 7,5 km/h (2 Bft)
11.07.2015 18:05 26,0 C 27,1 C 40 % 1012,6 hPa 0,0 mm 10,9 km/h (2 Bft) S 180 11,3 C 17,9 km/h (3 Bft)
11.07.2015 18:10 25,9 C 27,0 C 43 % 1012,9 hPa 0,0 mm 10,6 km/h (2 Bft) W-NW 292 12,3 C 9,1 km/h (2 Bft)
11.07.2015 18:15 25,9 C 26,8 C 43 % 1012,9 hPa 0,0 mm 11,1 km/h (2 Bft) W-SW 247 12,3 C 17,1 km/h (3 Bft)
11.07.2015 18:20 25,5 C 26,5 C 43 % 1012,9 hPa 0,0 mm 12,4 km/h (3 Bft) NO 45 12,0 C 5,4 km/h (1 Bft)
11.07.2015 18:25 25,1 C 26,0 C 42 % 1012,9 hPa 0,0 mm 14,0 km/h (3 Bft) W-SW 247 11,3 C 8,3 km/h (2 Bft)
11.07.2015 18:30 24,8 C 25,5 C 43 % 1013,1 hPa 0,0 mm 11,1 km/h (2 Bft) N-NW 337 11,4 C 25,4 km/h (4 Bft)
11.07.2015 18:35 25,0 C 25,5 C 44 % 1013,1 hPa 0,0 mm 9,6 km/h (2 Bft) W 270 11,9 C 13,5 km/h (3 Bft)
11.07.2015 18:40 25,4 C 26,3 C 44 % 1013,1 hPa 0,0 mm 8,3 km/h (2 Bft) W-SW 247 12,2 C 15,0 km/h (3 Bft)
11.07.2015 18:45 25,5 C 27,0 C 45 % 1013,1 hPa 0,0 mm 7,5 km/h (2 Bft) S-SW 202 12,7 C 7,3 km/h (2 Bft)
11.07.2015 18:50 25,5 C 28,4 C 44 % 1013,1 hPa 0,0 mm 8,0 km/h (2 Bft) S 180 12,3 C 8,0 km/h (2 Bft)
11.07.2015 18:55 25,4 C 28,8 C 44 % 1013,1 hPa 0,0 mm 8,8 km/h (2 Bft) S 180 12,2 C 17,9 km/h (3 Bft)
11.07.2015 19:00 25,4 C 29,1 C 44 % 1013,1 hPa 0,0 mm 7,8 km/h (2 Bft) SW 225 12,2 C 7,8 km/h (2 Bft)
11.07.2015 19:05 25,3 C 29,2 C 45 % 1013,1 hPa 0,0 mm 7,0 km/h (2 Bft) S 180 12,5 C 3,6 km/h (1 Bft)
11.07.2015 19:10 25,3 C 29,3 C 44 % 1012,9 hPa 0,0 mm 5,4 km/h (1 Bft) S 180 12,2 C 4,9 km/h (1 Bft)
11.07.2015 19:15 25,2 C 29,5 C 44 % 1012,9 hPa 0,0 mm 5,7 km/h (1 Bft) SW 225 12,1 C 11,4 km/h (2 Bft)
11.07.2015 19:20 24,9 C 28,6 C 43 % 1012,9 hPa 0,0 mm 6,2 km/h (2 Bft) SW 225 11,4 C 14,5 km/h (3 Bft)
11.07.2015 19:25 25,0 C 28,4 C 43 % 1012,9 hPa 0,0 mm 7,8 km/h (2 Bft) W-NW 292 11,5 C 17,6 km/h (3 Bft)
11.07.2015 19:30 24,9 C 28,1 C 43 % 1013,1 hPa 0,0 mm 8,5 km/h (2 Bft) N-NO 22 11,4 C 10,9 km/h (2 Bft)
11.07.2015 19:35 24,8 C 28,1 C 44 % 1013,1 hPa 0,0 mm 7,8 km/h (2 Bft) S-SW 202 11,7 C 7,5 km/h (2 Bft)
11.07.2015 19:40 24,6 C 28,0 C 45 % 1013,1 hPa 0,0 mm 4,9 km/h (1 Bft) S-SO 157 11,9 C 4,7 km/h (1 Bft)
11.07.2015 19:45 24,6 C 27,8 C 45 % 1013,1 hPa 0,0 mm 4,4 km/h (1 Bft) S 180 11,9 C 7,8 km/h (2 Bft)
11.07.2015 19:50 24,3 C 27,1 C 45 % 1013,2 hPa 0,0 mm 5,2 km/h (1 Bft) S-SW 202 11,6 C 9,6 km/h (2 Bft)
11.07.2015 19:55 24,2 C 26,8 C 45 % 1013,2 hPa 0,0 mm 4,9 km/h (1 Bft) W-NW 292 11,5 C 8,0 km/h (2 Bft)
11.07.2015 20:00 24,0 C 26,4 C 46 % 1013,2 hPa 0,0 mm 3,4 km/h (1 Bft) SW 225 11,7 C 0,0 km/h (0 Bft)
11.07.2015 20:05 23,9 C 26,3 C 46 % 1013,2 hPa 0,0 mm 2,6 km/h (1 Bft) SW 225 11,6 C 0,0 km/h (0 Bft)
11.07.2015 20:10 23,8 C 26,3 C 46 % 1013,2 hPa 0,0 mm 2,3 km/h (1 Bft) SW 225 11,5 C 0,0 km/h (0 Bft)
11.07.2015 20:15 23,7 C 26,2 C 47 % 1013,2 hPa 0,0 mm 2,8 km/h (1 Bft) S 180 11,7 C 5,7 km/h (1 Bft)
11.07.2015 20:20 23,5 C 25,8 C 48 % 1013,2 hPa 0,0 mm 3,6 km/h (1 Bft) S 180 11,8 C 3,4 km/h (1 Bft)
11.07.2015 20:25 23,5 C 25,6 C 48 % 1013,2 hPa 0,0 mm 4,4 km/h (1 Bft) S-SW 202 11,8 C 4,9 km/h (1 Bft)
11.07.2015 20:30 23,2 C 25,4 C 48 % 1013,1 hPa 0,0 mm 4,4 km/h (1 Bft) S-SW 202 11,6 C 4,4 km/h (1 Bft)
11.07.2015 20:35 22,9 C 25,0 C 49 % 1013,1 hPa 0,0 mm 4,4 km/h (1 Bft) S-SO 157 11,6 C 7,0 km/h (2 Bft)
11.07.2015 20:40 22,7 C 24,5 C 49 % 1013,1 hPa 0,0 mm 4,1 km/h (1 Bft) SW 225 11,4 C 10,1 km/h (2 Bft)
11.07.2015 20:45 22,8 C 24,1 C 49 % 1013,1 hPa 0,0 mm 4,7 km/h (1 Bft) S 180 11,5 C 4,7 km/h (1 Bft)
11.07.2015 20:50 22,6 C 23,8 C 49 % 1013,4 hPa 0,0 mm 5,7 km/h (1 Bft) W-SW 247 11,3 C 5,4 km/h (1 Bft)
11.07.2015 20:55 22,6 C 23,6 C 49 % 1013,4 hPa 0,0 mm 5,4 km/h (1 Bft) S-SW 202 11,3 C 7,8 km/h (2 Bft)
11.07.2015 21:00 22,1 C 23,3 C 51 % 1013,4 hPa 0,0 mm 4,4 km/h (1 Bft) S-SW 202 11,5 C 7,0 km/h (2 Bft)
11.07.2015 21:05 22,0 C 22,9 C 51 % 1013,4 hPa 0,0 mm 3,9 km/h (1 Bft) S 180 11,4 C 4,1 km/h (1 Bft)
11.07.2015 21:10 22,0 C 22,5 C 52 % 1013,4 hPa 0,0 mm 4,9 km/h (1 Bft) SW 225 11,7 C 8,8 km/h (2 Bft)
11.07.2015 21:15 21,9 C 22,2 C 52 % 1013,4 hPa 0,0 mm 5,2 km/h (1 Bft) S 180 11,6 C 5,7 km/h (1 Bft)
11.07.2015 21:20 21,6 C 21,8 C 52 % 1013,4 hPa 0,0 mm 5,2 km/h (1 Bft) S 180 11,3 C 7,8 km/h (2 Bft)
11.07.2015 21:25 21,7 C 21,7 C 52 % 1013,4 hPa 0,0 mm 5,4 km/h (1 Bft) S 180 11,4 C 7,5 km/h (2 Bft)
11.07.2015 21:30 21,5 C 21,6 C 52 % 1013,5 hPa 0,0 mm 6,5 km/h (2 Bft) S 180 11,2 C 6,0 km/h (2 Bft)
11.07.2015 21:35 21,7 C 21,6 C 52 % 1013,5 hPa 0,0 mm 6,5 km/h (2 Bft) S 180 11,4 C 6,7 km/h (2 Bft)
11.07.2015 21:40 21,4 C 21,4 C 52 % 1013,5 hPa 0,0 mm 6,5 km/h (2 Bft) S 180 11,1 C 7,8 km/h (2 Bft)
11.07.2015 21:45 21,3 C 21,3 C 52 % 1013,5 hPa 0,0 mm 6,2 km/h (2 Bft) W-SW 247 11,0 C 7,0 km/h (2 Bft)
11.07.2015 21:50 21,5 C 21,4 C 52 % 1013,7 hPa 0,0 mm 6,2 km/h (2 Bft) SW 225 11,2 C 7,8 km/h (2 Bft)
11.07.2015 21:55 21,4 C 21,3 C 52 % 1013,7 hPa 0,0 mm 6,5 km/h (2 Bft) S 180 11,1 C 4,9 km/h (1 Bft)
11.07.2015 22:00 21,3 C 21,3 C 52 % 1013,7 hPa 0,0 mm 5,7 km/h (1 Bft) S 180 11,0 C 7,3 km/h (2 Bft)
11.07.2015 22:05 21,1 C 21,1 C 52 % 1013,7 hPa 0,0 mm 5,2 km/h (1 Bft) S-SO 157 10,9 C 3,1 km/h (1 Bft)
11.07.2015 22:10 19,5 C 20,4 C 55 % 1014,1 hPa 0,0 mm 2,8 km/h (1 Bft) NO 45 10,2 C 0,0 km/h (0 Bft)
11.07.2015 22:15 19,1 C 19,6 C 57 % 1014,1 hPa 0,0 mm 1,0 km/h (0 Bft) S-SO 157 10,4 C 0,0 km/h (0 Bft)
11.07.2015 22:20 19,4 C 19,2 C 57 % 1014,1 hPa 0,0 mm 0,3 km/h (0 Bft) SW 225 10,7 C 0,0 km/h (0 Bft)
11.07.2015 22:25 19,6 C 19,3 C 57 % 1014,1 hPa 0,0 mm 0,5 km/h (0 Bft) S-SW 202 10,8 C 0,0 km/h (0 Bft)
11.07.2015 22:30 19,9 C 19,6 C 57 % 1014,1 hPa 0,0 mm 2,1 km/h (1 Bft) S 180 11,1 C 5,4 km/h (1 Bft)
11.07.2015 22:35 19,7 C 19,5 C 57 % 1014,1 hPa 0,0 mm 3,1 km/h (1 Bft) S 180 10,9 C 0,0 km/h (0 Bft)
11.07.2015 22:40 19,1 C 19,1 C 58 % 1014,1 hPa 0,0 mm 2,3 km/h (1 Bft) S-SO 157 10,6 C 0,0 km/h (0 Bft)
11.07.2015 22:45 19,1 C 19,0 C 59 % 1014,1 hPa 0,0 mm 1,6 km/h (1 Bft) S-SW 202 10,9 C 2,8 km/h (1 Bft)
11.07.2015 22:50 18,3 C 18,6 C 59 % 1014,2 hPa 0,0 mm 1,0 km/h (0 Bft) O-SO 112 10,1 C 0,0 km/h (0 Bft)
11.07.2015 22:55 18,5 C 18,4 C 60 % 1014,2 hPa 0,0 mm 0,8 km/h (0 Bft) S-SO 157 10,6 C 3,4 km/h (1 Bft)
11.07.2015 23:00 18,7 C 18,7 C 60 % 1014,2 hPa 0,0 mm 1,3 km/h (1 Bft) O-NO 67 10,8 C 0,0 km/h (0 Bft)
11.07.2015 23:05 18,6 C 18,5 C 60 % 1014,2 hPa 0,0 mm 1,3 km/h (1 Bft) SO 135 10,7 C 0,0 km/h (0 Bft)
11.07.2015 23:10 17,8 C 18,2 C 60 % 1014,1 hPa 0,0 mm 0,3 km/h (0 Bft) S 180 9,9 C 0,0 km/h (0 Bft)
11.07.2015 23:15 17,3 C 17,9 C 61 % 1014,1 hPa 0,0 mm 0,0 km/h (0 Bft) N-NW 337 9,7 C 0,0 km/h (0 Bft)
11.07.2015 23:20 17,3 C 17,4 C 63 % 1014,1 hPa 0,0 mm 0,0 km/h (0 Bft) NO 45 10,2 C 0,0 km/h (0 Bft)
11.07.2015 23:25 16,9 C 17,1 C 64 % 1014,1 hPa 0,0 mm 0,0 km/h (0 Bft) N-NO 22 10,0 C 0,0 km/h (0 Bft)
11.07.2015 23:30 16,6 C 16,6 C 65 % 1014,2 hPa 0,0 mm 0,0 km/h (0 Bft) NO 45 10,0 C 0,0 km/h (0 Bft)
11.07.2015 23:35 16,4 C 16,4 C 65 % 1014,2 hPa 0,0 mm 0,0 km/h (0 Bft) NO 45 9,8 C 0,0 km/h (0 Bft)
11.07.2015 23:40 16,7 C 16,4 C 68 % 1014,2 hPa 0,0 mm 0,0 km/h (0 Bft) NO 45 10,8 C 0,0 km/h (0 Bft)
11.07.2015 23:45 16,7 C 16,4 C 68 % 1014,2 hPa 0,0 mm 0,0 km/h (0 Bft) O-NO 67 10,8 C 0,0 km/h (0 Bft)
11.07.2015 23:50 16,6 C 16,4 C 67 % 1014,3 hPa 0,0 mm 0,0 km/h (0 Bft) SO 135 10,4 C 0,0 km/h (0 Bft)
11.07.2015 23:55 16,5 C 16,5 C 67 % 1014,3 hPa 0,0 mm 0,0 km/h (0 Bft) O-NO 67 10,4 C 0,0 km/h (0 Bft)
_ Min-Zeit 06:00 05:40 15:55 06:45 - 23:55 - - 02:45 23:55
Minimum _ 8,7 C 8,5 C 36 % 1012,1 hPa - 0,0 km/h (0 Bft) - - 6,5 C 0,0 km/h (0 Bft)
_ Max-Zeit 14:20 10:20 06:05 00:45 23:55 16:10 - - 10:25 15:10
Maximum _ 28,0 C 33,7 C 88 % 1014,7 hPa 0,0 mm 18,9 km/h
W-SW (3 Bft)
- - 16,3 C 51,5 km/h
NW (7 Bft)
Durchschnitt _ 19,6 C 22,2 C 60 % 1013,3 hPa #0,0 mm 5,2 km/h (1 Bft) W-NW - 10,9 C 7,3 km/h (2 Bft)